When you browse on this site, cookies collect data to enhance your experience and personalize the content and advertising you see.
Visit our Privacy Policy to learn more. By continuing to use the site, you agree to this use of cookies and data.
EN

Hourly Weather Hapur

Today, 6 August, Thursday

Time Temperature Precipitation Wind Pressure Humidity
00:00 +32°C° 0 mm 2 mps 729 mmHg 64%
01:00 +31°C° 0 mm 2 mps 728 mmHg 64%
02:00 +31°C° 0 mm 2 mps 728 mmHg 64%
03:00 +31°C° 1.3 mm 2 mps 728 mmHg 69%
04:00 +30°C° 1.3 mm 3 mps 728 mmHg 74%
05:00 +29°C° 0 mm 2 mps 728 mmHg 75%
06:00 +32°C° 0 mm 4 mps 729 mmHg 71%
07:00 +33°C° 0 mm 5 mps 730 mmHg 67%
08:00 +35°C° 0 mm 6 mps 730 mmHg 64%
09:00 +35°C° 0 mm 6 mps 730 mmHg 61%
10:00 +36°C° 0 mm 7 mps 730 mmHg 58%
11:00 +39°C° 0 mm 8 mps 730 mmHg 53%
12:00 +39°C° 0 mm 8 mps 730 mmHg 52%
13:00 +40°C° 0 mm 8 mps 730 mmHg 50%
14:00 +40°C° 0 mm 8 mps 729 mmHg 49%
15:00 +40°C° 0 mm 7 mps 729 mmHg 50%
16:00 +39°C° 0 mm 7 mps 729 mmHg 51%
17:00 +38°C° 0 mm 6 mps 729 mmHg 57%
18:00 +36°C° 0 mm 6 mps 729 mmHg 59%
19:00 +35°C° 0 mm 6 mps 730 mmHg 61%
20:00 +35°C° 0 mm 6 mps 730 mmHg 63%
21:00 +34°C° 0 mm 6 mps 731 mmHg 63%
22:00 +34°C° 0 mm 7 mps 731 mmHg 64%
23:00 +33°C° 0 mm 7 mps 731 mmHg 65%

Tomorrow, 7 August, Friday

Time Temperature Precipitation Wind Pressure Humidity
00:00 +33°C° 0 mm 6 mps 731 mmHg 67%
01:00 +32°C° 0 mm 6 mps 731 mmHg 69%
02:00 +32°C° 0 mm 6 mps 731 mmHg 71%
03:00 +32°C° 0 mm 5 mps 731 mmHg 72%
04:00 +32°C° 0 mm 5 mps 731 mmHg 73%
05:00 +30°C° 0 mm 5 mps 731 mmHg 75%
06:00 +32°C° 0 mm 5 mps 732 mmHg 74%
07:00 +32°C° 0 mm 5 mps 732 mmHg 73%
08:00 +33°C° 0 mm 6 mps 733 mmHg 72%
09:00 +34°C° 0 mm 6 mps 733 mmHg 66%
10:00 +36°C° 0 mm 6 mps 732 mmHg 60%
11:00 +38°C° 0 mm 6 mps 732 mmHg 54%
12:00 +39°C° 0 mm 5 mps 732 mmHg 52%
13:00 +40°C° 0 mm 5 mps 731 mmHg 51%
14:00 +40°C° 0 mm 4 mps 731 mmHg 49%
15:00 +40°C° 0 mm 4 mps 730 mmHg 50%
16:00 +39°C° 0 mm 3 mps 730 mmHg 51%
17:00 +38°C° 0 mm 3 mps 729 mmHg 52%
18:00 +37°C° 0 mm 3 mps 729 mmHg 54%
19:00 +36°C° 0 mm 2 mps 730 mmHg 56%
20:00 +35°C° 0 mm 2 mps 730 mmHg 59%
21:00 +35°C° 0 mm 2 mps 730 mmHg 59%
22:00 +34°C° 0 mm 2 mps 730 mmHg 60%
23:00 +34°C° 0 mm 2 mps 731 mmHg 61%

Day after tomorrow, 8 August, Saturday

Time Temperature Precipitation Wind Pressure Humidity
00:00 +34°C° 0 mm 2 mps 731 mmHg 62%
01:00 +32°C° 0 mm 2 mps 730 mmHg 64%
02:00 +32°C° 0 mm 2 mps 730 mmHg 66%
03:00 +32°C° 0 mm 2 mps 730 mmHg 67%
04:00 +31°C° 0 mm 2 mps 730 mmHg 67%
05:00 +31°C° 0 mm 1 mps 730 mmHg 68%
06:00 +32°C° 0 mm 2 mps 730 mmHg 65%
07:00 +34°C° 0 mm 2 mps 731 mmHg 62%
08:00 +35°C° 0 mm 2 mps 731 mmHg 59%
09:00 +37°C° 0 mm 2 mps 731 mmHg 55%
10:00 +37°C° 0 mm 1 mps 731 mmHg 50%
11:00 +40°C° 0 mm 1 mps 730 mmHg 46%
12:00 +40°C° 0 mm 1 mps 730 mmHg 44%
13:00 +38°C° 0 mm 0 mps 729 mmHg 43%
14:00 +38°C° 0 mm 0 mps 729 mmHg 41%
15:00 +38°C° 0 mm 0 mps 728 mmHg 42%
16:00 +41°C° 0 mm 1 mps 727 mmHg 42%
17:00 +40°C° 0 mm 1 mps 727 mmHg 42%
18:00 +39°C° 0 mm 1 mps 727 mmHg 44%
19:00 +37°C° 0 mm 1 mps 727 mmHg 47%
20:00 +36°C° 0 mm 1 mps 728 mmHg 50%
21:00 +36°C° 0 mm 1 mps 728 mmHg 50%
22:00 +35°C° 0 mm 1 mps 728 mmHg 51%
23:00 +35°C° 0 mm 1 mps 728 mmHg 52%

9 August, Sunday

Time Temperature Precipitation Wind Pressure Humidity
00:00 +35°C° 0 mm 1 mps 728 mmHg 52%
01:00 +35°C° 0 mm 1 mps 728 mmHg 52%
02:00 +35°C° 0 mm 1 mps 728 mmHg 52%
03:00 +35°C° 0 mm 1 mps 728 mmHg 54%
04:00 +34°C° 0 mm 1 mps 728 mmHg 55%
05:00 +35°C° 0 mm 2 mps 728 mmHg 56%
06:00 +35°C° 0.1 mm 2 mps 728 mmHg 57%
07:00 +36°C° 0.1 mm 3 mps 729 mmHg 57%
08:00 +37°C° 0.1 mm 4 mps 729 mmHg 57%
09:00 +38°C° 0 mm 4 mps 729 mmHg 53%
10:00 +40°C° 0 mm 4 mps 729 mmHg 50%
11:00 +42°C° 0 mm 4 mps 729 mmHg 46%
12:00 +42°C° 0 mm 3 mps 728 mmHg 44%
13:00 +42°C° 0 mm 3 mps 728 mmHg 42%
14:00 +42°C° 0 mm 2 mps 727 mmHg 41%
15:00 +40°C° 0.1 mm 3 mps 727 mmHg 46%
16:00 +40°C° 0.1 mm 4 mps 727 mmHg 51%
17:00 +37°C° 0.1 mm 4 mps 726 mmHg 57%
18:00 +35°C° 1 mm 4 mps 727 mmHg 64%
19:00 +34°C° 1 mm 4 mps 727 mmHg 71%
20:00 +32°C° 1 mm 4 mps 727 mmHg 78%
21:00 +31°C° 1 mm 3 mps 728 mmHg 80%
22:00 +31°C° 1 mm 3 mps 728 mmHg 83%
23:00 +30°C° 1 mm 2 mps 728 mmHg 85%

10 August, Monday

Time Temperature Precipitation Wind Pressure Humidity
00:00 +30°C° 3.6 mm 4 mps 728 mmHg 88%
01:00 +29°C° 3.6 mm 5 mps 728 mmHg 90%
02:00 +29°C° 3.6 mm 6 mps 728 mmHg 93%
03:00 +28°C° 6.4 mm 6 mps 728 mmHg 94%
04:00 +28°C° 6.4 mm 5 mps 728 mmHg 95%
05:00 +28°C° 6.4 mm 5 mps 728 mmHg 96%
06:00 +28°C° 12.3 mm 4 mps 729 mmHg 96%
07:00 +28°C° 12.3 mm 4 mps 730 mmHg 96%
08:00 +27°C° 12.3 mm 4 mps 730 mmHg 96%
09:00 +28°C° 1 mm 3 mps 730 mmHg 94%
10:00 +29°C° 1 mm 3 mps 731 mmHg 92%
11:00 +29°C° 1 mm 3 mps 731 mmHg 90%
12:00 +29°C° 0.6 mm 2 mps 731 mmHg 89%
13:00 +30°C° 0.6 mm 2 mps 730 mmHg 87%
14:00 +30°C° 0.6 mm 2 mps 730 mmHg 86%
15:00 +30°C° 0.9 mm 2 mps 730 mmHg 87%
16:00 +29°C° 0.9 mm 2 mps 730 mmHg 89%
17:00 +29°C° 0.9 mm 2 mps 729 mmHg 90%
18:00 +29°C° 0.1 mm 2 mps 730 mmHg 91%
19:00 +29°C° 0.1 mm 2 mps 730 mmHg 92%
20:00 +28°C° 0.1 mm 1 mps 730 mmHg 92%
21:00 +28°C° 0 mm 1 mps 730 mmHg 92%
22:00 +28°C° 0 mm 1 mps 730 mmHg 92%
23:00 +28°C° 0 mm 1 mps 730 mmHg 92%

11 August, Tuesday

Time Temperature Precipitation Wind Pressure Humidity
00:00 +28°C° 0.2 mm 1 mps 730 mmHg 92%
01:00 +28°C° 0.2 mm 1 mps 730 mmHg 92%
02:00 +28°C° 0.2 mm 1 mps 729 mmHg 93%
03:00 +28°C° 0.3 mm 1 mps 729 mmHg 93%
04:00 +28°C° 0.3 mm 1 mps 729 mmHg 93%
05:00 +28°C° 0.3 mm 1 mps 729 mmHg 93%
06:00 +29°C° 0.4 mm 1 mps 730 mmHg 89%
07:00 +30°C° 0.4 mm 1 mps 730 mmHg 85%
08:00 +31°C° 0.4 mm 1 mps 731 mmHg 81%
09:00 +31°C° 1.8 mm 1 mps 731 mmHg 78%
10:00 +32°C° 1.8 mm 1 mps 731 mmHg 76%
11:00 +32°C° 1.8 mm 1 mps 731 mmHg 74%
12:00 +32°C° 1.9 mm 1 mps 731 mmHg 75%
13:00 +32°C° 1.9 mm 1 mps 730 mmHg 75%
14:00 +32°C° 1.9 mm 1 mps 730 mmHg 76%
15:00 +32°C° 0.5 mm 2 mps 729 mmHg 79%
16:00 +31°C° 0.5 mm 2 mps 729 mmHg 82%
17:00 +30°C° 0.5 mm 2 mps 728 mmHg 85%
18:00 +30°C° 0.1 mm 2 mps 729 mmHg 86%
19:00 +29°C° 0.1 mm 2 mps 729 mmHg 87%
20:00 +29°C° 0.1 mm 2 mps 729 mmHg 89%
21:00 +29°C° 0 mm 2 mps 729 mmHg 89%
22:00 +29°C° 0 mm 2 mps 730 mmHg 89%
23:00 +28°C° 0 mm 2 mps 730 mmHg 89%
Show more